{"data":{"norad_id":67774,"intl_designator":"2026-030L","name":"KUIPER-00205","alt_names":[],"object_type":"PAYLOAD","status":"ACTIVE","operator":null,"country":"US","launch_date":"2026-02-12","launch_site_code":"FRGUI","launch_vehicle":null,"mission":null,"orbit_class":"UNKNOWN","rcs_meters":null,"size_class":null,"mass_kg":null,"dimensions":null,"purposes":[],"wikipedia_slug":null,"has_3d_model":false,"image_url":null,"decayed_at":null,"tle_current":{"epoch":"2026-09-20T16:14:19.829760Z","epoch_age_seconds":74000,"freshness":"FRESH","line1":"1 67774U 26030L   26263.67661840  .00000761  00000+0  12883-3 0  9997","line2":"2 67774  51.9026  40.8685 0000496 107.9402 252.1614 14.79933994 34476","mean_motion":14.79933994,"eccentricity":4.96e-5,"inclination_deg":51.9026,"raan_deg":40.8685,"arg_perigee_deg":107.9402,"mean_anomaly_deg":252.1614,"bstar":0.00012883,"rev_number":3447,"period_min":97.301636818811,"perigee_km":629.18491095829,"apogee_km":629.88007177184,"semimajor_km":7007.6694913651,"source":"CELESTRAK","updated_at":"2026-09-21T09:00:16.829749Z"}}}